Location: West Cummington
(42.4920°N, 72.9680°W)
Time: 10:09:41
(UTC-04:00)

Cosmos 2221 - Visible Passes

Search period start: 31 May 2016 00:00
Search period end: 10 June 2016 00:00
Orbit: 594 x 618 km, 82.5° (Epoch: 31 May)

Date Brightness Start Highest point End Pass type
(mag) Time Alt. Az. Time Alt. Az. Time Alt. Az.
31 May 4.6 22:20:45 10° NE 22:23:00 14° ENE 22:24:01 13° E visible
31 May 2.9 23:56:45 10° NNW 00:00:54 52° W 00:00:54 52° W visible
01 Jun 4.0 22:33:04 10° NNE 22:36:28 22° ENE 22:37:17 21° E visible
02 Jun 3.8 00:10:19 10° NNW 00:14:05 30° W 00:14:10 30° W visible
02 Jun 3.3 22:45:52 10° N 22:49:52 36° ENE 22:50:34 34° E visible
03 Jun 4.5 00:24:12 10° NW 00:27:09 18° W 00:27:27 18° W visible
03 Jun 2.5 22:58:55 10° N 23:03:11 63° E 23:03:51 54° SE visible
04 Jun 5.1 00:39:05 10° WNW 00:40:09 11° W 00:40:44 11° W visible
04 Jun 2.5 23:12:08 10° NNW 23:16:26 76° W 23:17:09 59° SSW visible
05 Jun 4.4 21:49:04 10° NNE 21:51:47 16° ENE 21:53:35 13° E visible
05 Jun 3.3 23:25:33 10° NNW 23:29:37 43° W 23:30:28 37° SW visible
06 Jun 3.8 22:01:36 10° NNE 22:05:13 26° ENE 22:06:55 20° ESE visible
06 Jun 4.1 23:39:11 10° NNW 23:42:44 25° W 23:43:48 23° WSW visible
07 Jun 3.0 22:14:28 10° N 22:18:35 43° ENE 22:20:16 29° SE visible
07 Jun 4.8 23:53:15 10° NW 23:55:46 15° W 23:57:09 13° WSW visible
08 Jun 2.4 22:27:35 10° N 22:31:53 76° E 22:33:37 35° SSE visible
09 Jun 4.7 21:05:30 10° NE 21:07:03 12° ENE 21:08:36 10° E visible
09 Jun 2.8 22:40:52 10° NNW 22:45:06 62° W 22:47:00 31° SSW visible
